User: anonymous   Login
Location: NJAA Observatory
(40.6819°N, 74.8979°W)
Time: 23:34:44
(UTC-05:00)
Language:

ATLAS CENTAUR R/B - Orbit

View from above orbital plane
View from above orbital plane
View from above satellite
View from above satellite

Ground track
Ground track

The orbit data is extracted from the following two-line orbital elements,

1 28385U 04034B   16330.77925723 0.00063000  00000-0  92352-3 0    08
2 28385  57.3224 183.3678 3716110  20.7059 351.1169  8.08211002    07
Epoch (UTC): 25 November 2016 18:42:07
Eccentricity: 0.3716110
inclination: 57.3224°
perigee height: 213 km
apogee height: 8008 km
right ascension of ascending node: 183.3678°
argument of perigee: 20.7059°
revolutions per day: 8.08211002
mean anomaly at epoch: 351.1169°
orbit number at epoch: 0

The dashed part of the orbit path shows where the satellite is in the earth's shadow,  

DLR